Temp
64 64 64 64 64 64 64 64 64 64 64 64 64 64 64 64 65 67 67 69 69 71 70 71 71 70 70 65 65 61 51 48 52 55 57 61 60 63 64 64 61 60 57 58 64
63 63 64 64 64 64 64 64 64 64 64 64 64 64 64 64 65 68 70 72 72 71 71 69 67 68 63 62 62 56 48 52 57 57 57 63 60 63 60 59 56 55 59 61 61
63 63 63 63 63 64 64 63 63 63 64 63 63 64 63 62 64 66 70 72 72 70 71 71 70 67 60 60 58 56 52 58 59 60 63 63 60 63 60 55 58 58 58 60 58
62 62 62 62 63 63 63 63 63 63 63 63 63 63 62 63 54 67 70 71 71 71 71 69 66 59 56 55 61 52 59 60 62 62 61 58 61 58 59 57 59 59 59 57 56
62 61 61 62 62 63 63 63 63 62 61 63 64 63 64 61 64 70 68 69 70 70 68 66 63 60 54 58 59 54 57 61 61 59 58 61 57 58 55 56 59 60 59 55 54
62 61 61 61 61 62 63 63 63 61 61 63 64 63 61 55 71 73 70 68 71 68 67 68 62 63 58 58 56 57 58 59 61 60 59 58 55 56 57 56 57 58 54 53 54
62 62 60 61 61 62 62 62 62 61 61 63 64 65 60 63 70 71 71 67 68 68 66 66 66 63 60 56 60 58 53 56 59 59 57 58 54 56 57 56 55 54 51 52 53
62 62 61 60 60 61 61 61 61 61 62 63 64 59 57 67 65 70 70 67 69 69 67 66 66 62 60 59 57 52 49 45 55 58 56 56 48 58 57 55 53 52 49 51 52
61 60 62 60 60 60 60 61 60 62 63 63 59 56 56 67 64 68 67 66 66 66 66 72 64 58 57 50 46 46 41 45 52 56 55 52 49 55 56 56 52 50 49 50 49
60 60 60 61 60 60 60 61 61 60 63 65 66 54 60 59 62 66 65 68 63 61 61 59 55 49 49 46 39 43 43 48 47 54 52 48 49 54 56 55 54 51 49 49 49
60 60 60 60 60 60 58 56 54 52 54 57 57 58 60 61 64 61 65 65 63 57 49 52 46 43 49 51 52 49 46 45 49 54 51 49 50 54 56 53 51 50 50 50 50
60 60 60 61 60 60 56 52 56 56 50 60 60 61 63 63 56 59 65 57 55 49 51 47 43 52 54 53 52 49 46 45 50 53 50 49 49 53 55 54 56 56 54 52 46
59 59 60 60 60 57 54 56 62 59 48 56 59 59 60 61 57 55 61 57 52 49 49 45 51 56 53 51 50 48 46 45 48 48 47 45 42 48 54 57 56 58 58 55 49
59 59 59 59 55 55 52 60 62 59 41 48 54 58 59 60 53 61 62 59 53 49 50 48 56 54 51 50 52 44 50 51 48 43 37 44 34 44 51 52 52 57 53 53 48
59 58 58 60 56 53 59 62 62 57 28 52 51 61 58 58 54 52 58 56 50 51 52 47 49 49 48 50 53 47 50 47 46 40 36 37 35 42 50 50 56 55 54 49 48
58 58 58 57 57 59 61 63 59 42 29 46 49 49 50 52 50 51 53 57 56 51 49 48 50 51 51 48 51 50 47 45 42 39 28 39 39 37 47 52 54 48 47 47 46
58 58 57 60 53 61 62 57 36 31 50 44 43 47 47 46 46 48 46 45 45 41 39 44 46 48 51 46 48 47 43 31 28 26 30 38 35 45 49 52 53 52 47 46 46
57 57 57 59 60 58 55 41 29 37 42 48 46 44 42 46 44 45 43 41 47 45 41 41 35 46 50 48 44 41 43 32 26 25 28 34 31 41 49 50 48 52 51 46 44
56 56 55 57 58 57 46 31 36 39 47 46 45 39 39 44 43 42 40 40 46 48 44 40 40 47 48 51 53 41 39 46 35 21 24 33 39 46 45 45 43 45 46 45 45
52 53 54 59 58 53 43 36 38 51 51 51 44 44 36 40 40 39 39 45 48 52 52 50 39 44 43 50 46 45 47 36 33 22 20 30 33 41 41 45 43 43 44 45 45
50 47 56 59 55 47 38 36 42 50 54 49 46 45 42 39 40 37 40 44 50 49 54 50 45 36 42 40 41 41 39 42 43 34 27 25 36 45 50 50 44 45 46 46 45
47 42 55 57 44 45 41 43 47 46 51 50 50 49 48 46 42 38 39 47 52 51 45 52 44 29 36 42 45 45 43 40 34 33 31 30 41 46 47 49 47 47 47 47 47
43 46 54 54 40 41 45 44 46 46 49 48 48 49 51 48 44 45 45 50 51 51 46 49 41 31 33 37 38 39 42 48 46 35 34 30 40 45 44 46 46 43 44 45 45
42 39 46 49 49 45 43 41 41 46 48 52 49 52 49 48 52 43 43 48 50 52 50 54 41 42 39 39 41 37 41 45 46 33 36 40 45 42 43 45 44 43 45 44 44
42 40 44 39 40 43 45 46 41 41 47 49 45 47 47 42 44 43 47 45 47 49 51 50 37 39 44 43 43 40 40 42 40 43 38 45 44 50 51 47 48 46 43 43 43
40 39 42 40 39 41 43 36 44 44 46 42 42 45 47 45 46 44 47 47 45 44 48 46 38 41 39 40 40 38 41 42 43 44 44 46 45 51 53 53 46 46 45 44 44
43 43 41 38 38 38 39 38 39 45 47 50 47 46 45 48 54 54 53 52 47 43 40 39 38 34 34 39 37 32 39 43 42 46 45 39 48 49 52 53 46 45 46 46 46
MSLP
1019.40 1019.38 1019.38 1019.26 1019.21 1019.10 1018.98 1018.88 1018.76 1018.40 1018.23 1017.93 1017.62 1017.28 1017.06 1016.79 1016.02 1015.97 1016.00 1016.10 1015.88 1015.52 1015.31 1015.10 1014.71 1014.50 1014.57 1015.05 1015.34 1015.68 1017.05 1017.26 1016.64 1016.33 1016.09 1015.84 1015.91 1015.93 1016.28 1016.96 1017.99 1018.95 1019.63 1020.14 1020.39
1019.48 1019.49 1019.55 1019.56 1019.47 1019.35 1019.19 1018.88 1018.79 1018.53 1018.25 1017.82 1017.51 1017.30 1017.14 1016.84 1016.49 1016.07 1016.08 1015.81 1015.60 1015.48 1015.40 1015.31 1015.05 1014.67 1015.09 1015.42 1015.71 1016.29 1017.33 1017.00 1016.63 1016.18 1016.04 1016.01 1016.14 1016.32 1016.79 1017.67 1018.87 1019.82 1020.18 1020.41 1020.71
1019.54 1019.54 1019.56 1019.56 1019.53 1019.39 1019.22 1019.02 1018.82 1018.57 1018.25 1017.88 1017.63 1017.27 1016.97 1016.84 1016.62 1016.26 1015.94 1015.72 1015.52 1015.46 1015.44 1015.24 1015.07 1014.93 1015.30 1015.55 1015.94 1016.29 1016.73 1016.61 1016.58 1016.41 1016.03 1016.11 1016.37 1016.48 1017.06 1018.16 1018.82 1019.63 1020.46 1020.75 1021.27
1019.48 1019.56 1019.62 1019.56 1019.52 1019.40 1019.32 1019.20 1019.03 1018.65 1018.33 1018.11 1017.64 1017.12 1016.71 1016.68 1016.76 1016.03 1015.85 1015.69 1015.53 1015.49 1015.42 1015.25 1015.25 1015.37 1015.61 1015.91 1016.00 1016.49 1016.48 1016.49 1016.47 1016.43 1016.40 1016.50 1016.55 1016.85 1017.46 1018.40 1018.64 1019.29 1020.17 1020.89 1021.60
1019.43 1019.64 1019.62 1019.59 1019.59 1019.54 1019.43 1019.33 1019.15 1018.89 1018.58 1018.20 1017.61 1017.05 1016.48 1016.48 1016.18 1015.83 1015.84 1015.67 1015.55 1015.52 1015.49 1015.36 1015.47 1015.60 1015.89 1016.04 1016.20 1016.52 1016.62 1016.58 1016.65 1016.66 1016.76 1016.84 1017.11 1017.52 1018.36 1019.04 1019.26 1019.81 1020.62 1021.40 1021.83
1019.34 1019.50 1019.65 1019.64 1019.59 1019.59 1019.44 1019.36 1019.19 1019.09 1018.73 1018.18 1017.72 1017.08 1016.83 1016.52 1015.69 1015.70 1015.80 1015.70 1015.64 1015.58 1015.50 1015.48 1015.78 1015.86 1016.11 1016.28 1016.54 1016.73 1016.83 1016.84 1016.84 1016.89 1016.99 1017.31 1017.63 1017.99 1018.35 1019.11 1019.87 1020.34 1021.05 1021.60 1021.92
1019.14 1019.23 1019.43 1019.59 1019.62 1019.55 1019.45 1019.29 1019.22 1019.09 1018.75 1018.22 1017.84 1017.48 1016.93 1016.10 1015.52 1015.60 1015.71 1015.79 1015.71 1015.75 1015.74 1015.80 1015.86 1016.05 1016.37 1016.69 1016.91 1017.01 1017.31 1017.14 1016.92 1017.03 1017.26 1017.43 1018.02 1017.91 1018.30 1019.23 1020.05 1020.79 1021.26 1021.76 1022.08
1018.76 1019.06 1019.20 1019.39 1019.54 1019.54 1019.41 1019.20 1019.05 1018.90 1018.65 1018.22 1017.93 1017.66 1016.71 1015.73 1015.74 1015.74 1015.73 1015.90 1015.82 1015.80 1015.92 1015.97 1016.02 1016.38 1016.72 1017.13 1017.32 1017.56 1017.77 1017.71 1016.90 1017.08 1017.55 1017.84 1017.88 1017.57 1018.16 1019.07 1020.15 1020.85 1021.37 1021.73 1022.17
1018.39 1018.78 1019.12 1019.20 1019.36 1019.44 1019.34 1019.05 1018.81 1018.67 1018.46 1018.25 1017.93 1017.57 1016.72 1015.96 1016.01 1015.71 1015.70 1015.97 1016.12 1016.28 1016.28 1016.24 1016.33 1017.01 1017.40 1017.92 1018.35 1018.30 1018.28 1017.99 1017.38 1017.25 1017.70 1018.23 1018.15 1017.90 1018.45 1019.07 1019.98 1020.52 1021.12 1021.52 1022.10
1018.04 1018.43 1018.78 1019.04 1019.16 1019.25 1019.20 1018.85 1018.49 1018.58 1017.89 1018.06 1017.75 1017.75 1016.59 1016.15 1015.96 1015.82 1015.87 1015.99 1016.37 1016.69 1016.94 1016.99 1017.37 1017.95 1018.32 1018.61 1018.86 1018.49 1018.43 1017.97 1017.79 1017.65 1017.83 1018.34 1018.19 1018.09 1018.30 1018.78 1019.20 1019.70 1020.45 1021.16 1021.67
1017.55 1018.14 1018.40 1018.70 1018.99 1019.21 1019.21 1018.69 1018.85 1018.70 1018.17 1016.96 1016.71 1016.22 1016.07 1016.28 1016.09 1016.10 1015.99 1016.17 1016.56 1017.10 1017.56 1017.73 1018.26 1018.45 1018.15 1018.11 1017.98 1018.01 1018.15 1018.05 1017.63 1017.41 1018.00 1018.17 1017.94 1017.67 1017.73 1018.29 1018.57 1019.10 1019.44 1020.15 1020.84
1017.05 1017.77 1018.06 1018.40 1018.73 1019.13 1019.30 1018.88 1018.02 1017.95 1017.40 1016.13 1016.08 1015.98 1015.70 1015.85 1016.26 1016.34 1016.13 1016.57 1017.01 1017.51 1017.92 1018.42 1018.10 1017.70 1017.84 1018.00 1018.17 1018.09 1018.16 1017.92 1017.65 1017.54 1018.14 1018.07 1017.90 1017.40 1017.22 1017.14 1016.96 1017.33 1018.20 1018.93 1020.20
1016.57 1017.17 1017.67 1018.06 1018.46 1019.10 1018.87 1017.94 1017.41 1017.53 1017.51 1015.42 1014.77 1014.72 1015.03 1015.53 1015.62 1015.90 1016.30 1016.47 1016.92 1017.62 1017.81 1017.88 1017.26 1016.88 1017.75 1017.92 1018.05 1017.84 1017.88 1017.94 1018.14 1018.13 1018.28 1018.31 1017.78 1017.18 1016.13 1015.61 1015.64 1016.08 1016.48 1017.50 1018.42
1016.11 1016.63 1017.20 1018.01 1018.68 1018.43 1018.42 1017.24 1017.43 1017.53 1017.54 1014.90 1014.02 1013.25 1013.93 1014.72 1015.31 1014.90 1015.28 1015.76 1016.69 1016.91 1017.53 1017.53 1016.87 1016.89 1017.46 1017.73 1017.79 1017.80 1017.53 1017.83 1018.36 1019.04 1019.08 1018.78 1017.50 1016.54 1015.84 1015.32 1015.08 1014.76 1015.59 1016.63 1018.31
1015.67 1016.07 1016.72 1017.21 1016.97 1017.63 1016.81 1016.77 1017.16 1017.75 1017.55 1013.88 1013.57 1013.41 1013.58 1014.37 1014.61 1015.46 1015.42 1015.52 1015.90 1016.37 1016.88 1016.18 1016.28 1016.67 1017.16 1017.01 1017.42 1017.67 1017.72 1018.28 1018.76 1019.45 1019.76 1019.54 1019.05 1015.48 1015.19 1014.76 1013.90 1013.66 1014.63 1016.02 1017.39
1015.43 1015.58 1016.15 1016.81 1017.02 1016.54 1016.28 1016.60 1017.36 1018.29 1015.92 1013.81 1013.68 1013.65 1014.28 1014.57 1015.27 1015.84 1015.79 1015.74 1015.85 1016.23 1016.23 1016.16 1016.12 1016.23 1016.41 1017.05 1017.19 1017.89 1018.46 1019.26 1019.92 1020.63 1020.52 1019.66 1018.98 1015.73 1014.80 1013.43 1013.00 1013.22 1014.36 1015.52 1016.86
1015.15 1015.15 1015.44 1015.68 1015.85 1016.16 1016.47 1015.94 1018.62 1017.55 1013.75 1013.53 1013.79 1014.04 1014.25 1014.76 1015.64 1015.79 1016.14 1016.24 1015.97 1016.57 1016.39 1016.51 1016.31 1016.29 1016.39 1017.34 1017.72 1017.98 1019.17 1020.67 1021.39 1021.77 1020.03 1018.82 1018.32 1014.84 1013.56 1012.79 1012.86 1013.11 1014.00 1015.21 1016.49
1014.84 1014.73 1014.45 1014.45 1015.22 1016.12 1016.20 1017.74 1017.01 1015.46 1013.96 1013.34 1013.58 1014.31 1014.76 1014.90 1015.73 1015.90 1016.05 1016.35 1015.85 1015.62 1015.81 1016.01 1016.22 1015.91 1015.98 1015.91 1016.86 1017.85 1018.33 1019.52 1020.50 1021.35 1020.44 1019.41 1017.12 1013.70 1012.65 1012.43 1012.61 1013.03 1013.84 1015.29 1016.54
1014.42 1013.78 1013.70 1013.84 1014.62 1015.44 1015.62 1016.78 1013.86 1012.98 1012.90 1013.36 1013.71 1014.33 1014.69 1014.73 1015.33 1016.05 1015.92 1015.34 1014.73 1014.82 1015.02 1015.27 1015.21 1014.69 1015.06 1015.45 1015.96 1017.83 1018.02 1018.33 1019.82 1021.20 1020.74 1018.07 1015.41 1013.42 1012.83 1012.72 1013.01 1013.41 1014.17 1014.90 1016.05
1014.38 1013.19 1012.25 1012.92 1014.06 1014.68 1014.12 1013.33 1012.12 1010.86 1011.08 1011.60 1012.16 1012.62 1013.42 1014.16 1014.73 1015.34 1015.14 1013.57 1013.72 1013.43 1013.77 1013.86 1014.60 1015.11 1015.60 1015.74 1016.19 1016.21 1017.03 1018.55 1019.50 1020.39 1019.64 1016.66 1014.73 1012.86 1012.65 1012.69 1013.17 1013.68 1014.11 1015.14 1016.01
1014.12 1012.54 1010.54 1012.18 1013.48 1013.16 1012.30 1011.69 1011.53 1011.39 1011.44 1010.52 1010.80 1011.40 1011.95 1013.26 1013.62 1013.87 1013.12 1012.54 1012.53 1012.77 1013.12 1013.45 1014.05 1015.95 1015.85 1015.46 1015.23 1016.26 1016.54 1017.12 1017.59 1018.02 1017.41 1015.82 1012.34 1010.71 1010.78 1011.09 1012.09 1012.92 1013.61 1014.31 1015.39
1013.50 1011.75 1010.27 1010.94 1011.58 1010.89 1010.80 1010.46 1010.37 1010.55 1011.06 1010.91 1010.32 1010.36 1010.42 1011.45 1012.48 1012.74 1011.88 1011.24 1010.94 1011.44 1012.44 1012.53 1013.63 1015.27 1015.35 1015.04 1014.82 1014.27 1014.75 1015.41 1016.02 1016.30 1015.92 1014.78 1008.69 1009.81 1009.85 1010.26 1011.15 1012.01 1012.90 1013.82 1014.68
1012.70 1011.04 1010.13 1009.70 1008.91 1009.67 1009.54 1009.78 1010.09 1010.63 1010.01 1010.26 1009.48 1009.20 1009.49 1010.16 1011.22 1010.75 1010.45 1010.51 1010.69 1011.03 1011.27 1012.16 1013.04 1014.29 1014.85 1015.20 1015.04 1014.75 1014.66 1014.38 1014.39 1014.79 1013.78 1014.27 1008.20 1009.39 1009.45 1010.09 1010.63 1011.61 1012.44 1013.24 1014.18
1012.49 1010.68 1009.68 1008.70 1007.76 1008.08 1007.99 1008.23 1008.89 1008.93 1009.53 1009.06 1008.85 1008.87 1008.95 1009.06 1009.44 1009.10 1009.55 1009.72 1009.81 1010.13 1010.48 1010.88 1011.87 1011.72 1010.84 1011.67 1012.82 1013.96 1013.42 1013.24 1013.86 1013.52 1012.74 1010.12 1009.24 1009.50 1009.55 1010.19 1010.67 1011.15 1011.88 1012.74 1013.69
1011.41 1009.80 1008.85 1007.92 1007.91 1007.34 1007.51 1006.72 1007.34 1007.74 1008.08 1008.51 1008.51 1008.01 1008.06 1008.50 1008.76 1008.19 1009.00 1009.39 1009.59 1009.42 1009.86 1010.32 1011.15 1011.38 1010.65 1011.16 1011.09 1011.45 1011.63 1012.16 1012.20 1010.75 1011.43 1007.81 1008.61 1007.56 1008.81 1009.24 1009.63 1010.40 1011.71 1012.51 1013.19
1010.13 1009.69 1009.29 1008.38 1007.81 1007.51 1006.53 1007.04 1006.38 1006.30 1006.84 1006.95 1007.37 1007.20 1007.66 1007.40 1006.86 1005.91 1007.99 1008.53 1009.01 1009.90 1009.98 1010.17 1010.60 1011.34 1010.83 1010.80 1011.09 1011.32 1011.01 1009.68 1010.17 1010.06 1009.68 1008.27 1005.85 1007.11 1007.08 1008.03 1009.11 1009.61 1010.54 1011.32 1011.76
1009.52 1009.63 1009.61 1008.62 1008.05 1007.51 1006.85 1006.97 1006.31 1006.08 1006.22 1006.01 1006.29 1006.95 1007.06 1006.06 1005.14 1006.01 1007.11 1007.56 1008.21 1009.03 1010.31 1010.75 1010.85 1011.46 1010.15 1010.84 1011.37 1011.20 1006.32 1009.29 1008.95 1008.43 1008.09 1007.49 1003.54 1006.64 1006.80 1007.36 1007.95 1008.55 1009.30 1009.45 1009.88
Wind_Speed
6 7 7 8 8 8 8 8 9 10 11 12 13 12 12 14 13 1 3 2 3 6 6 5 4 3 4 3 3 3 5 2 5 5 5 5 4 3 2 6 5 5 4 5 8
5 6 7 8 8 8 8 9 10 11 12 12 13 13 11 12 3 2 2 4 2 2 3 4 5 2 3 2 3 5 4 1 2 4 5 5 4 6 4 4 4 5 4 5 5
5 6 6 7 8 9 9 10 9 11 13 13 14 13 11 7 1 2 3 2 1 2 2 3 4 2 2 3 2 2 3 3 3 2 3 5 4 3 5 3 5 9 9 6 8
3 4 6 7 8 9 10 9 10 11 13 14 14 14 13 1 2 1 2 2 2 5 3 0 2 2 2 2 2 3 2 3 2 3 3 2 1 2 3 4 2 12 10 8 10
3 5 5 5 7 9 9 10 10 13 14 14 13 14 3 3 2 2 2 2 3 2 2 2 3 2 2 2 2 2 1 2 3 2 1 1 0 3 3 6 8 11 9 9 9
7 4 5 5 6 8 9 10 10 13 14 14 14 15 2 1 4 5 3 2 2 1 1 5 2 1 1 2 3 1 3 3 4 4 2 3 2 1 3 9 9 9 10 8 9
7 6 5 6 6 7 8 9 9 12 15 14 12 5 1 6 2 4 3 1 2 2 2 2 3 4 1 2 1 1 3 5 5 6 3 4 6 10 6 9 10 9 8 8 7
8 8 7 5 6 7 8 8 9 11 14 12 11 3 5 1 2 3 4 2 2 2 3 2 3 2 4 1 1 1 1 1 3 9 3 5 8 4 11 12 10 10 8 8 7
10 8 9 6 6 7 8 10 11 12 12 12 4 1 7 2 3 3 3 5 4 3 3 1 3 3 2 4 5 3 3 5 5 4 5 4 6 3 6 7 9 9 9 9 8
10 10 9 8 5 6 9 9 9 10 4 3 4 3 3 4 2 3 1 6 3 4 4 2 4 3 2 4 6 6 4 5 5 7 4 5 10 7 8 9 11 11 10 10 10
12 12 11 9 5 5 5 4 2 1 2 9 5 3 4 1 3 1 3 4 4 2 5 2 4 8 13 10 6 3 3 4 4 4 4 9 9 11 10 7 9 11 12 13 13
14 13 12 10 6 4 1 1 3 2 7 10 9 7 4 6 4 4 4 6 5 6 5 3 8 11 7 7 8 7 7 8 5 4 5 6 11 9 6 10 14 17 16 15 9
17 16 14 11 8 2 4 5 2 1 3 7 9 8 8 9 8 11 10 5 5 7 8 9 7 7 8 5 6 6 6 5 8 1 3 5 7 8 10 13 8 13 14 14 20
17 17 14 11 5 4 5 7 4 2 3 8 7 7 6 9 7 6 12 8 5 13 7 9 9 3 5 7 8 7 4 6 5 1 5 4 10 6 7 10 9 19 15 17 14
16 19 19 18 5 6 6 8 6 3 5 5 1 1 5 12 8 1 1 2 9 9 8 10 8 8 8 8 8 7 3 2 3 3 1 3 6 7 8 11 21 16 14 13 17
13 20 22 12 3 4 4 9 4 3 14 5 3 5 7 3 3 3 4 3 3 3 3 5 1 6 8 2 3 8 6 6 5 3 4 10 10 4 8 11 9 4 8 15 16
11 19 18 10 8 7 5 9 5 7 5 7 6 6 3 6 4 4 7 7 9 7 8 2 4 3 5 6 6 4 8 2 4 1 10 4 7 13 10 8 7 10 12 14 15
13 14 19 12 7 7 7 2 8 15 11 4 5 5 7 7 4 7 9 8 11 3 4 11 7 13 8 10 10 8 10 8 8 6 5 2 10 9 9 9 5 6 11 12 14
17 4 9 11 11 9 13 8 14 14 12 4 3 4 6 4 7 4 8 5 8 14 11 8 7 3 2 5 13 6 8 3 2 2 2 7 9 8 6 8 2 6 11 17 17
5 4 10 14 14 11 13 17 11 14 8 21 20 10 11 11 8 10 12 8 9 18 5 5 3 1 1 4 3 7 7 3 1 4 7 6 8 12 6 14 8 10 11 10 12
4 6 5 18 11 11 14 9 8 7 13 9 18 9 8 9 8 8 8 3 11 13 23 6 5 2 5 8 14 6 5 6 4 5 6 4 9 8 12 14 14 14 14 16 15
4 9 7 17 13 6 16 14 11 7 13 10 6 7 11 12 12 12 15 10 11 13 16 15 4 5 10 4 5 6 9 7 6 7 5 3 19 3 3 9 9 12 14 13 15
5 6 7 13 14 16 10 22 14 18 21 9 14 15 13 16 11 14 12 8 9 16 13 11 6 2 5 4 2 7 8 15 5 4 10 5 14 3 2 4 8 10 11 13 14
3 5 6 11 10 20 21 21 23 20 15 19 7 15 4 11 16 8 9 9 14 15 12 15 6 15 19 5 9 8 13 17 20 9 7 27 23 3 3 6 7 9 11 13 14
5 6 3 6 18 17 18 21 21 20 29 15 12 21 17 13 14 27 22 3 2 9 16 15 12 10 19 4 7 8 16 21 24 29 15 22 26 20 14 14 13 8 8 11 14
6 5 2 5 2 7 24 6 26 24 18 22 24 22 24 24 24 27 16 14 10 5 12 5 12 12 18 9 8 9 13 25 26 27 28 29 37 8 9 9 8 13 14 15 17
2 1 2 4 5 5 9 6 1 13 12 22 27 25 25 31 30 21 8 8 2 10 7 6 9 6 24 10 6 9 39 21 20 22 21 27 37 10 19 18 12 12 15 20 21
Wind_Direction
28 23 18 18 16 13 13 7 359 358 350 346 345 340 336 332 316 275 68 300 298 315 334 305 313 289 14 61 28 56 60 337 318 146 171 179 117 27 153 108 60 26 98 148 153
18 21 12 5 4 2 360 2 354 350 345 343 338 331 328 338 315 32 294 292 322 351 357 13 2 15 20 53 18 80 90 288 331 341 151 166 125 158 116 121 71 62 76 120 130
351 357 2 359 355 353 352 351 346 344 343 338 328 319 324 327 18 292 310 319 26 335 289 316 324 35 40 64 39 13 145 310 350 59 48 134 107 192 140 197 185 178 162 132 104
327 341 343 349 348 347 344 342 339 342 342 332 325 319 320 192 154 292 294 299 282 304 301 289 360 42 108 111 64 59 97 86 335 22 44 78 85 92 161 164 156 134 148 127 121
291 307 322 337 338 336 336 334 338 343 334 329 326 330 354 12 202 196 224 225 297 307 18 46 50 21 78 107 100 118 229 91 123 78 37 27 116 222 135 150 112 124 113 132 134
269 270 298 314 323 325 328 328 337 330 326 325 326 325 346 264 158 147 152 153 314 336 11 43 75 88 343 90 121 199 340 280 188 194 204 171 256 72 176 153 139 132 140 145 145
252 258 271 297 306 312 317 320 323 316 315 316 323 321 333 229 170 148 166 60 14 39 78 47 35 80 347 89 227 85 326 303 236 202 222 141 296 228 169 157 154 154 152 146 154
228 252 251 271 289 299 303 303 298 300 306 304 315 318 248 46 329 144 128 63 27 27 89 38 26 78 85 180 3 214 118 300 275 152 199 109 265 267 175 150 173 170 170 162 168
206 220 248 245 269 288 293 291 288 293 295 298 314 164 271 346 159 189 147 142 99 47 28 29 64 125 50 99 13 320 229 214 297 169 126 161 260 191 150 164 184 189 187 177 166
206 200 219 240 252 279 290 278 286 318 278 256 267 6 203 207 150 128 50 138 127 112 52 74 61 94 39 101 219 213 216 256 225 228 160 187 257 250 208 191 207 198 190 184 180
198 200 201 218 230 271 329 327 348 294 252 199 193 220 127 72 24 174 212 122 102 92 155 216 120 200 203 199 204 221 208 234 261 219 148 222 249 250 229 218 220 214 197 191 187
196 200 195 199 188 247 286 217 281 193 301 239 241 271 150 176 105 202 127 139 146 188 136 59 231 224 198 216 225 245 260 265 290 207 167 260 255 257 228 222 212 208 208 196 158
203 193 190 182 163 194 227 214 171 42 268 270 195 186 184 150 199 188 154 165 161 166 190 176 219 200 192 214 199 221 196 223 218 246 271 294 271 248 250 236 225 226 211 195 178
201 194 176 159 134 162 223 224 234 85 283 261 214 230 129 137 237 171 186 154 187 192 189 225 229 194 161 214 175 239 207 221 240 161 242 150 285 241 250 265 219 227 198 192 174
211 191 178 172 146 180 227 179 139 59 297 243 144 305 153 162 137 331 333 71 172 183 148 230 179 184 201 207 166 225 143 146 189 188 333 289 289 265 215 250 252 234 212 178 171
240 198 185 195 266 247 149 128 77 120 238 210 126 158 128 181 49 84 114 41 148 171 273 201 147 158 190 94 167 149 77 38 39 76 269 219 216 203 231 233 263 233 180 169 165
269 213 185 176 208 212 191 134 129 208 288 198 172 170 165 158 122 143 154 177 168 156 218 168 210 173 137 92 5 112 100 300 324 327 242 246 241 244 250 239 223 232 184 170 161
294 236 206 197 185 165 136 24 171 215 223 77 104 95 182 145 185 169 141 190 244 225 128 190 262 170 188 184 171 195 161 166 218 216 258 21 240 252 230 265 282 243 177 157 162
314 241 214 199 172 176 147 200 195 183 188 198 106 147 211 165 136 142 197 220 194 195 191 177 257 102 93 155 153 200 215 163 55 44 21 223 278 295 227 262 271 172 168 176 173
298 229 220 173 175 191 194 206 226 199 147 189 213 171 176 182 154 176 180 206 213 193 209 217 238 331 56 88 46 151 158 95 153 209 250 255 249 241 230 240 214 218 196 182 174
268 247 186 162 174 197 215 226 219 227 252 159 220 210 177 178 183 201 212 246 188 187 195 186 176 297 129 201 173 158 181 202 155 173 203 277 253 215 216 215 199 216 197 187 183
243 240 169 155 205 210 209 201 191 189 244 254 226 228 219 171 188 207 213 213 185 163 187 202 131 171 209 274 256 197 183 173 167 219 238 186 255 172 174 214 189 210 197 188 184
256 246 166 181 207 216 205 224 228 199 200 209 223 206 226 241 238 220 219 188 185 168 175 172 216 101 314 352 16 209 201 220 277 54 215 203 267 321 45 204 206 189 188 184 178
241 252 198 211 247 221 205 212 214 205 225 214 202 227 222 227 238 237 228 204 187 192 180 170 174 209 228 186 151 196 202 207 211 229 214 235 263 233 200 230 221 210 192 181 185
205 232 243 205 228 244 243 220 209 210 208 197 238 232 226 221 229 237 224 174 286 207 184 168 212 204 249 208 158 185 196 204 210 223 209 250 240 237 232 222 217 194 173 178 187
215 207 250 276 286 224 225 256 228 214 198 208 223 210 224 231 216 234 220 210 196 185 200 171 234 212 253 230 222 218 211 217 217 229 236 249 256 168 221 236 198 197 188 194 196
205 184 229 243 260 234 218 193 254 232 225 235 208 223 227 226 233 243 238 216 120 154 173 168 189 163 245 206 245 275 232 224 225 229 221 236 246 210 246 240 225 213 201 199 199